Location: Mountain Grove
(34.0887°N, 86.6172°W)
Time: 14:54:36
(UTC+00:00)

USA 238 - Pass Details

Date: 14 July 2020
Orbit: 1009 x 1203 km, 63.4° (Epoch: 08 August)

Event Time Altitude Azimuth Distance (km) Brightness Sun altitude
Exits shadow 08:20:52 30° 162° (SSE) 1,727 4.5 -24.1°
Maximum altitude 08:23:31 44° 113° (ESE) 1,381 4.3 -23.7°
Drops below altitude 10° 08:29:49 10° 44° (NE) 2,866 7.1 -22.9°
Sets 08:32:36 0° 38° (NE) 3,850 8.1 -22.5°
